RH
79 79 79 79 78 78 79 79 79 80 80 80 81 83 87 88 87 78 28 21 34 75 78 72 66 50 50 59 54 63 78 74 61 51 52 47 55 45 48 57 50 50 57 51 57
80 80 80 79 78 79 80 80 80 79 80 81 81 83 86 86 89 65 38 52 61 79 55 55 55 51 60 52 52 65 82 59 46 40 48 45 48 48 57 58 59 56 48 50 58
80 80 80 80 78 80 82 82 80 80 79 80 81 82 88 90 56 15 51 59 70 81 28 33 32 43 50 42 44 52 56 38 32 29 36 46 46 46 58 66 62 61 56 57 60
80 79 79 78 78 77 79 80 81 80 79 80 81 81 92 90 5 17 71 72 70 56 28 17 15 16 23 30 30 39 34 31 30 28 36 46 44 53 53 56 51 48 52 56 63
80 80 79 79 79 80 79 80 82 83 80 79 80 81 74 46 28 12 58 75 61 43 26 18 17 17 24 23 25 30 27 23 23 27 36 38 46 50 51 51 46 45 52 57 62
80 81 82 83 83 83 82 83 81 82 80 79 78 82 72 34 8 22 38 54 51 34 27 19 17 15 18 20 26 24 23 20 17 17 31 43 47 48 52 48 48 50 56 56 58
81 83 85 85 84 83 83 80 82 83 82 79 77 78 68 20 14 19 18 31 36 30 26 21 16 18 21 24 19 19 19 18 19 29 31 38 52 54 53 50 53 54 55 54 54
81 84 86 86 85 84 83 82 83 82 83 78 79 81 45 27 32 28 21 17 21 25 20 18 15 18 22 19 19 20 22 25 16 33 36 41 60 58 53 54 57 54 54 54 58
83 85 86 86 86 84 84 84 83 74 76 80 87 77 48 36 32 25 18 14 15 25 27 14 16 20 25 28 29 25 29 29 20 27 35 44 69 58 52 54 58 56 55 54 57
84 85 86 86 86 86 84 85 76 79 74 63 52 64 29 16 18 8 12 14 14 19 25 24 28 29 28 31 39 31 28 26 24 30 35 56 67 59 54 54 56 55 54 52 51
84 84 85 85 85 83 92 40 24 22 20 20 30 40 25 18 9 9 7 8 15 19 26 25 28 30 27 24 22 24 24 27 24 22 42 53 65 61 54 55 56 55 53 50 48
84 84 85 85 84 86 82 33 29 26 28 16 15 16 18 14 15 9 7 8 17 19 24 29 30 24 18 20 20 20 24 20 19 40 44 55 66 56 53 54 52 52 52 49 48
84 84 85 87 86 69 70 44 37 38 30 20 17 17 17 16 17 14 7 8 14 21 21 28 25 18 17 18 19 25 24 24 24 41 44 49 61 58 54 50 48 47 47 46 47
84 85 86 86 53 93 50 45 46 32 33 20 20 14 14 15 13 11 6 6 14 16 20 20 17 17 19 18 19 28 17 17 17 36 59 52 80 65 58 51 48 48 47 46 45
84 84 85 86 95 84 35 54 46 26 26 15 16 11 11 12 9 10 8 7 10 19 20 21 19 19 18 17 17 20 14 15 17 28 53 54 70 65 65 59 48 46 44 43 42
84 84 84 84 97 86 68 60 26 33 29 19 14 16 14 11 12 12 10 8 8 13 19 19 17 17 16 14 14 15 15 19 39 44 64 49 55 51 79 48 39 41 42 40 40
84 83 88 75 63 68 54 29 32 42 21 23 23 20 21 23 18 17 13 12 14 19 21 23 19 17 15 19 17 15 15 23 27 53 45 51 61 30 38 34 31 31 36 37 37
84 87 84 72 93 65 34 30 47 28 26 20 21 21 23 20 21 18 20 17 19 18 28 27 30 19 16 16 18 18 19 27 27 41 36 53 56 38 28 27 32 32 31 32 36
86 95 87 68 67 56 28 41 43 32 20 21 23 25 25 22 25 21 23 23 21 20 29 38 30 19 15 14 14 18 20 15 20 43 27 46 40 32 34 30 33 40 42 36 33
98 97 72 58 46 29 32 50 35 21 18 21 27 25 33 32 30 26 25 24 27 28 29 27 34 21 16 15 15 14 13 19 26 27 29 25 34 35 41 33 29 39 40 39 34
93 63 43 38 32 37 44 41 31 20 18 22 31 33 35 35 35 34 24 22 32 33 28 30 38 24 19 22 22 14 18 21 22 27 27 28 26 26 30 32 43 38 35 35 35
96 59 45 36 34 55 44 37 35 25 22 26 28 31 35 36 34 34 34 29 26 35 43 45 46 34 24 19 17 15 15 17 23 23 33 27 22 16 24 33 38 37 36 36 34
98 97 61 36 67 67 51 31 26 29 29 31 34 32 37 42 35 38 32 26 32 35 51 66 72 45 35 26 24 27 29 34 25 27 31 28 22 20 26 42 38 40 36 33 33
97 84 69 65 72 69 70 53 44 30 30 31 33 36 41 49 48 46 42 29 32 34 53 53 72 40 36 31 30 32 28 32 28 30 24 27 22 28 28 29 32 35 34 35 36
96 90 83 92 77 83 75 64 61 62 46 33 41 38 47 70 60 58 49 47 39 49 59 75 66 34 29 29 29 28 26 30 30 26 23 18 22 27 28 32 33 35 37 34 35
96 95 93 93 88 77 85 83 72 64 60 48 50 41 46 59 51 56 63 76 62 60 63 75 62 62 44 34 36 39 33 31 31 29 22 19 23 16 17 34 33 39 37 36 34
90 77 85 86 90 91 87 72 68 67 52 51 60 60 62 61 61 72 70 75 71 82 81 79 84 81 57 43 40 42 60 49 42 34 30 21 17 30 35 30 37 32 43 48 53
Wind_Speed
21 21 21 21 21 22 23 23 21 20 21 21 20 19 18 17 16 2 8 12 9 16 15 8 3 4 5 4 4 4 1 2 3 6 6 13 6 7 5 12 2 3 5 16 18
22 22 23 23 23 22 21 22 22 21 19 19 19 18 16 16 4 9 14 8 8 19 9 11 7 8 4 6 5 5 3 6 7 9 5 15 16 12 6 8 4 7 16 19 18
22 23 23 23 24 24 22 21 21 20 20 18 17 17 16 11 5 9 3 15 14 15 5 4 4 6 4 4 6 7 7 6 7 9 15 14 11 4 16 5 6 23 22 21 18
23 23 24 25 25 24 24 23 22 20 19 18 17 16 15 1 4 2 6 10 15 8 4 6 3 4 4 7 5 5 8 6 4 3 15 17 12 7 10 5 14 24 23 21 20
24 24 25 26 26 27 26 24 22 21 18 15 14 13 4 3 13 7 3 11 10 8 9 7 5 5 4 4 3 10 5 8 12 9 11 16 17 9 7 9 17 21 18 18 17
24 25 25 26 26 27 26 25 24 20 20 15 10 7 1 5 6 5 5 7 6 8 7 7 7 7 4 5 2 3 4 9 8 11 22 17 6 10 6 16 18 20 18 17 17
25 25 25 26 27 29 30 30 26 22 19 12 8 5 2 19 3 8 3 4 7 6 7 7 6 3 2 4 5 5 5 7 5 8 11 16 7 7 16 17 21 19 16 16 16
26 26 26 27 28 30 31 32 28 22 11 5 11 4 10 5 3 9 3 5 5 6 3 7 6 4 2 4 8 4 5 3 6 11 10 8 12 7 18 21 20 17 16 15 13
25 25 26 28 29 30 32 32 26 7 6 15 5 4 12 7 3 8 8 6 5 5 3 1 8 5 2 2 5 5 2 1 6 5 16 4 4 15 16 17 18 17 16 15 11
24 25 27 28 30 31 33 29 13 7 5 5 2 2 5 4 5 6 4 4 4 5 3 5 2 4 2 4 6 3 1 3 2 2 4 0 4 16 18 17 18 17 17 16 15
24 25 27 28 29 30 18 7 9 7 6 6 7 7 11 8 6 2 4 2 3 3 6 3 5 6 8 5 5 1 1 2 1 4 4 9 11 20 19 16 16 16 16 16 16
23 25 27 28 30 28 3 6 5 7 12 12 16 16 12 5 7 8 1 3 5 6 4 3 6 8 6 6 4 2 2 4 5 5 6 3 6 14 19 21 21 20 18 19 14
23 24 26 28 33 4 3 2 1 2 3 10 6 5 5 9 9 11 6 3 4 5 5 7 6 6 6 4 4 2 4 2 1 4 8 12 4 4 12 10 13 15 17 18 21
23 24 23 29 4 6 6 5 6 1 5 10 5 6 3 6 5 8 8 7 2 9 8 5 5 5 6 5 6 5 6 4 5 2 5 2 4 5 7 15 16 17 17 18 19
23 24 21 16 5 4 6 9 9 5 3 3 3 1 4 4 4 1 4 4 9 6 7 9 7 7 6 10 7 6 5 6 5 3 5 3 4 7 7 11 17 19 22 21 19
24 25 23 1 1 8 10 8 4 7 6 8 7 9 9 8 8 8 2 3 5 4 1 8 3 6 12 7 7 3 4 3 6 4 1 8 7 6 10 21 20 12 18 22 21
25 28 17 3 4 5 6 5 6 4 8 8 6 9 3 7 9 9 2 3 5 6 3 2 6 4 2 3 3 5 6 1 1 2 8 8 3 14 12 20 21 24 21 20 22
28 28 5 6 2 5 4 6 2 3 4 4 6 5 6 10 7 9 4 6 13 7 4 6 5 9 4 10 8 7 9 7 6 6 5 5 9 12 15 15 23 12 17 18 18
24 5 4 4 5 2 6 5 3 2 4 5 4 6 6 6 6 7 9 7 6 10 3 1 6 4 7 5 13 5 6 10 5 2 3 5 9 8 9 10 9 12 13 16 16
5 5 5 5 5 5 7 2 2 3 4 4 4 6 8 8 9 8 7 8 9 9 3 3 4 5 4 5 4 8 8 4 2 6 5 6 5 9 5 13 11 10 15 13 13
4 4 4 5 4 6 3 4 4 5 3 5 2 5 4 5 3 6 7 6 11 13 6 6 2 8 6 5 8 3 2 3 6 5 8 2 9 9 12 12 12 16 13 13 13
3 2 5 4 5 2 1 2 4 5 6 6 4 4 3 3 5 6 5 4 10 10 6 4 1 4 8 3 3 6 7 7 7 5 2 5 9 4 9 11 8 12 9 7 7
3 3 5 4 4 4 6 5 4 3 4 3 2 3 1 3 4 2 5 9 13 10 7 7 4 5 3 6 7 6 3 3 2 3 8 7 8 4 5 1 6 8 8 8 7
2 5 6 6 2 3 4 4 5 6 1 2 3 3 4 3 1 4 4 4 12 10 10 2 2 5 5 8 4 4 5 2 3 4 5 7 5 5 7 8 8 7 8 8 9
3 1 2 3 4 3 2 2 3 6 5 4 2 3 4 1 3 3 2 5 7 6 6 5 3 4 7 9 5 5 7 5 5 6 6 7 9 10 7 7 8 8 6 6 7
2 3 4 1 3 4 5 5 6 4 3 6 2 3 4 5 7 6 2 2 4 6 6 5 3 6 6 5 3 5 8 8 8 6 6 5 8 8 6 3 5 7 6 6 9
2 2 4 4 5 2 2 3 4 4 4 4 5 2 3 2 4 5 6 5 5 2 2 2 3 5 6 4 7 2 4 3 4 6 5 6 10 6 3 7 6 8 8 9 6
Wind_Direction
351 349 347 345 342 339 336 334 332 330 329 328 326 326 328 328 317 218 250 221 177 168 139 144 208 194 162 190 179 183 61 262 242 185 224 144 129 161 84 142 172 144 120 142 146
349 347 344 342 341 337 333 330 328 326 324 323 322 322 326 330 288 246 246 208 181 162 138 157 182 159 206 192 189 162 151 225 219 232 173 162 157 149 123 160 50 85 120 138 145
347 344 342 339 337 335 331 328 325 321 319 317 318 318 321 327 298 250 319 201 172 170 151 165 137 157 228 182 190 188 214 182 257 244 162 162 164 143 144 187 191 151 151 150 152
345 342 339 336 334 332 329 325 321 316 312 311 312 315 319 325 296 13 26 144 172 180 183 174 175 192 217 208 195 254 244 237 243 228 162 163 148 142 166 220 164 161 153 153 157
341 339 336 334 332 328 325 322 315 311 307 298 298 311 345 344 253 284 345 137 147 156 185 177 165 183 221 244 197 221 240 252 261 181 164 156 184 167 200 140 141 150 154 157 161
339 337 335 332 330 326 322 318 313 310 299 289 276 286 168 263 255 304 107 124 164 164 180 162 194 204 264 272 197 250 260 280 263 256 164 166 163 130 166 143 145 155 161 166 173
337 335 335 332 331 327 323 317 314 312 298 279 223 196 180 236 278 319 295 223 172 182 161 211 193 151 174 270 318 294 340 323 295 135 151 125 157 196 149 151 157 165 167 169 185
337 334 334 332 329 325 321 316 316 314 306 164 170 154 242 244 263 286 191 256 211 207 237 175 127 209 203 297 337 329 61 356 305 109 145 123 189 143 157 156 165 171 175 183 185
335 334 333 330 328 324 319 314 315 310 92 133 118 153 266 285 249 263 178 211 170 187 203 114 122 197 274 100 3 354 188 201 323 186 163 123 152 160 162 165 167 177 180 189 194
336 335 332 329 328 324 319 305 305 107 143 205 204 10 278 313 334 288 287 207 190 133 133 168 155 158 39 116 216 180 128 209 276 167 146 99 140 161 171 171 176 179 185 193 193
337 335 327 327 325 322 329 360 12 346 27 246 230 258 295 306 319 257 306 24 157 123 162 185 148 197 207 171 199 340 334 322 221 292 141 179 156 174 172 176 185 187 194 195 198
335 332 326 327 321 318 305 70 106 249 300 267 244 253 258 71 313 302 170 140 141 193 110 37 210 214 180 182 209 210 268 264 290 39 106 152 163 162 180 187 189 187 192 201 198
332 329 328 325 319 11 294 234 73 335 297 298 244 245 239 150 210 259 170 171 141 139 168 163 234 175 179 219 200 194 211 153 207 13 38 106 33 152 201 202 207 211 208 198 197
330 325 328 332 38 318 290 325 333 258 42 281 293 291 128 171 253 207 199 150 151 178 144 222 231 193 193 210 142 252 187 161 234 101 165 85 203 241 194 207 213 211 211 213 205
325 321 325 326 270 308 284 333 326 60 2 338 356 65 264 194 294 46 173 80 172 180 123 231 176 179 215 219 147 217 158 209 219 202 103 293 96 235 154 220 216 210 208 211 209
322 318 326 334 248 249 308 310 47 46 259 346 4 340 15 359 344 328 163 80 161 138 107 216 235 167 192 210 167 159 277 43 58 108 152 217 180 237 189 210 213 205 208 210 204
321 315 317 207 229 314 316 37 48 138 328 359 328 341 45 338 355 349 298 160 133 110 236 313 250 238 153 169 160 144 103 264 21 87 220 183 176 235 212 207 206 206 201 207 203
324 314 247 227 191 353 32 51 139 1 354 339 335 344 56 2 352 327 5 35 24 359 140 171 277 187 185 175 186 180 154 162 167 183 221 120 226 247 220 216 219 221 206 195 202
329 322 291 285 182 111 62 67 166 314 299 324 329 36 357 358 349 351 34 38 48 27 39 5 256 261 166 165 163 191 147 203 97 0 56 216 282 300 233 239 180 189 186 201 203
330 335 298 278 142 64 70 238 230 288 339 55 60 40 20 355 21 20 22 9 347 356 300 319 295 251 199 139 210 153 174 97 356 144 196 283 265 232 262 242 230 213 207 209 204
26 19 267 351 70 47 113 233 299 331 52 58 62 54 87 14 9 342 334 52 19 340 11 4 68 295 120 195 170 89 156 59 127 143 157 185 260 219 234 240 204 222 211 199 202
7 57 315 359 50 27 55 284 335 344 26 46 82 78 80 46 359 354 352 54 7 8 6 323 146 285 238 266 201 155 187 161 133 229 218 160 267 220 253 249 216 223 200 189 196
13 276 315 57 77 346 315 329 0 59 18 52 90 89 80 68 5 336 348 341 8 17 2 340 339 338 35 18 17 58 28 59 123 87 189 149 255 320 287 248 227 219 182 176 182
31 9 338 34 47 96 8 321 341 337 203 138 152 81 52 37 58 316 306 319 347 333 331 173 239 183 180 250 221 303 314 285 136 123 175 213 257 282 245 246 238 210 209 178 172
27 319 193 340 340 348 248 325 358 7 341 14 39 151 149 225 320 225 262 324 307 17 3 74 260 212 246 242 215 237 255 265 197 221 178 226 200 244 215 224 240 210 208 185 185
66 38 359 330 306 337 356 1 15 338 319 333 213 234 158 173 205 260 204 114 254 342 15 347 278 346 274 263 247 243 238 235 228 237 237 241 240 231 258 175 185 181 163 199 210
320 24 94 334 345 60 29 1 1 347 256 46 317 13 342 291 232 217 205 222 210 207 327 313 70 21 264 294 296 196 328 333 282 37 307 182 226 193 216 172 188 172 199 144 138